Temperature
28 25 24 25 26 27 27 27 26 27 28 27 26 25 25 26 26 25 25 24 24 24 24 23 23 23 22 22 21 21 21 20 20 20 20 20 19 19 19 19 19 19 19 19
25 25 26 27 28 28 28 27 26 27 28 27 26 25 25 25 26 25 25 25 24 24 23 23 23 23 22 22 22 21 21 21 20 20 20 20 19 19 19 19 19 19 19 19
25 26 28 29 28 28 27 27 27 27 27 27 26 25 25 25 26 25 25 25 25 24 24 23 23 23 23 22 22 21 21 21 20 20 20 19 19 19 19 19 19 19 19 19
26 27 29 28 28 28 26 28 28 28 26 24 25 23 24 24 24 24 25 24 24 24 24 24 23 23 23 23 22 22 21 21 21 20 20 20 20 20 19 19 19 19 19 19
26 28 28 28 29 29 28 29 28 27 25 23 24 23 23 23 23 24 24 25 25 25 24 24 24 23 23 23 22 22 22 21 21 20 20 20 20 20 19 19 19 19 19 19
27 28 28 28 29 29 29 27 26 24 22 23 23 23 22 22 24 24 24 25 25 25 25 24 24 24 23 23 22 22 22 21 21 20 20 20 20 19 19 19 19 19 19 19
26 27 28 29 28 28 27 24 23 23 22 22 23 23 22 24 25 25 24 25 25 25 24 24 24 23 23 23 23 22 22 22 21 21 20 20 20 20 20 19 19 19 19 19
24 25 27 28 28 27 26 24 23 23 22 22 22 23 23 25 25 25 25 25 25 25 24 24 24 24 23 23 23 23 22 22 21 21 21 20 20 20 20 19 19 19 19 19
24 25 27 29 29 28 27 25 23 22 23 22 22 23 24 24 24 24 24 24 24 24 24 24 24 24 24 23 23 23 23 22 21 21 21 20 20 20 20 19 19 19 19 19
24 25 26 28 28 28 27 25 22 22 22 22 23 23 23 23 23 23 23 23 24 24 24 24 24 24 24 24 24 23 23 22 22 21 21 20 20 20 19 19 19 19 19 18
24 24 25 26 26 27 27 26 23 21 21 21 22 22 24 23 23 23 23 23 24 24 24 24 24 24 23 23 23 23 23 22 22 21 21 20 20 20 19 19 19 19 19 18
24 22 22 24 25 27 26 25 23 22 22 20 21 22 24 23 23 23 23 24 24 24 24 24 24 23 23 23 23 22 22 22 22 21 21 20 20 20 19 19 19 18 18 18
24 21 22 23 23 25 25 25 23 21 20 20 21 22 23 22 23 24 23 24 24 24 24 23 23 23 23 23 23 23 22 22 22 21 21 20 20 19 19 19 19 18 18 18
24 21 21 22 22 23 24 25 24 22 21 21 21 22 23 22 22 23 23 24 24 24 24 23 23 23 23 23 22 22 22 22 21 21 21 20 20 20 19 19 18 18 18 18
22 21 22 22 23 24 25 25 25 23 22 22 22 22 22 22 22 23 23 24 24 24 24 23 23 23 23 22 22 22 22 22 21 21 21 20 20 20 19 19 18 18 18 18
20 21 22 22 24 24 24 25 25 25 24 23 23 23 22 23 23 23 23 23 23 23 23 23 23 23 23 22 22 22 22 22 21 21 21 20 20 19 19 18 18 18 18 18
19 20 20 20 22 23 23 24 24 24 24 23 22 22 22 21 21 22 23 23 23 23 23 23 23 23 23 23 22 22 21 21 21 20 20 20 19 19 19 18 18 18 18 17
19 18 17 18 21 22 22 23 25 24 23 23 22 22 22 22 23 23 24 23 23 23 23 23 23 23 23 22 22 21 21 21 20 20 20 19 19 19 19 18 18 18 18 17
18 18 17 17 19 20 22 23 24 23 22 22 22 21 22 22 22 22 23 23 23 23 23 23 23 23 22 22 22 21 21 20 20 20 20 19 19 19 18 18 18 18 18 17
18 17 17 17 19 20 20 23 24 23 21 21 21 20 21 21 19 20 22 23 23 23 23 22 22 22 22 22 21 21 20 20 20 20 19 19 19 19 18 18 18 18 17 17
18 18 17 17 18 18 20 22 23 21 19 21 21 21 21 20 20 22 22 23 23 22 22 22 22 22 22 21 21 20 20 20 20 19 19 19 19 18 18 18 18 17 17 17
17 17 17 16 17 18 20 21 19 19 20 21 21 21 21 21 22 22 22 22 22 22 22 22 21 21 21 21 20 20 20 19 19 19 19 18 18 18 18 18 17 17 17 16
16 16 16 16 16 18 20 20 20 21 20 20 21 21 21 21 21 21 21 21 21 21 21 21 21 20 20 20 20 20 19 19 19 18 18 18 18 18 18 17 17 17 16 16
16 16 15 15 17 18 19 20 20 20 20 20 21 21 21 21 21 21 21 21 21 21 20 20 20 20 19 19 19 19 19 19 18 18 18 18 18 17 17 17 17 16 16 16
16 16 14 14 15 17 18 19 19 19 20 20 20 21 21 20 20 20 20 20 20 20 20 20 19 19 19 18 18 18 18 18 18 18 18 17 17 17 17 17 16 16 16 16
15 15 14 14 16 15 17 18 18 18 19 19 19 20 20 20 20 20 19 19 19 19 19 19 19 18 18 18 18 18 18 18 18 17 17 17 17 17 16 16 16 16 16 15
Wind_Speed
3 1 4 8 8 8 5 3 5 6 4 2 4 6 11 12 11 12 12 12 13 13 12 12 13 14 12 10 10 9 8 7 6 4 4 3 3 3 3 3 5 5 5 5
4 6 11 9 7 4 4 3 3 4 3 1 3 5 9 12 14 15 16 15 15 13 11 13 12 13 13 12 10 10 9 8 7 5 4 3 4 3 3 2 3 4 5 5
9 10 9 8 7 5 5 4 4 4 4 3 2 1 5 7 7 9 12 13 14 17 17 16 15 14 14 13 12 11 10 8 7 6 4 4 3 2 2 2 2 2 5 5
8 9 8 8 8 6 6 7 5 3 1 3 1 2 5 6 6 9 12 13 14 15 15 15 15 15 16 14 12 11 10 9 7 7 6 7 5 4 3 3 2 2 3 4
8 7 7 8 10 6 7 6 4 3 1 1 2 2 6 3 6 11 12 14 15 16 17 17 17 16 15 14 12 11 10 9 8 8 8 8 5 4 3 3 3 2 2 3
10 8 6 8 8 6 4 1 3 3 4 1 4 3 6 4 8 8 9 12 14 16 16 15 14 12 12 12 11 11 10 9 9 8 8 8 7 6 5 4 4 3 2 2
9 9 7 5 5 5 1 3 3 5 4 5 4 2 7 8 9 9 10 11 12 12 14 14 14 14 14 14 13 12 12 10 10 10 9 9 8 8 8 6 5 4 2 2
5 8 6 5 7 7 4 7 7 6 6 5 2 4 7 7 6 5 6 9 10 11 12 15 16 16 15 15 14 13 13 11 11 10 10 8 9 7 6 6 5 5 4 4
7 7 7 6 6 7 4 4 9 7 3 2 4 5 7 2 1 3 4 6 8 9 10 12 14 15 15 16 16 15 14 11 10 10 9 8 8 8 7 6 5 4 4 4
8 5 7 6 3 3 8 7 5 5 4 3 4 4 5 4 3 4 6 6 7 7 8 9 10 12 13 14 14 13 13 13 10 10 9 8 7 7 7 6 6 5 5 4
6 6 7 4 3 6 3 2 4 4 5 6 4 7 6 8 8 8 7 8 9 9 8 8 8 9 10 10 11 12 12 11 9 9 8 7 7 6 6 6 6 6 5 5
4 6 4 8 7 5 5 5 6 5 3 5 4 7 5 5 6 7 6 6 7 8 9 9 9 8 8 9 11 12 12 11 10 9 9 8 8 7 7 6 6 6 5 5
2 5 1 7 7 5 2 1 4 6 5 4 4 6 3 2 4 6 6 6 6 7 8 8 8 8 9 9 10 11 11 12 11 10 9 8 8 8 8 7 6 6 6 5
4 4 6 7 7 4 3 3 1 4 4 5 7 6 5 3 5 6 6 7 8 7 9 9 8 8 9 9 10 10 10 10 10 10 10 9 9 9 8 7 6 6 6 6
5 2 1 4 5 2 3 4 3 4 7 8 8 8 8 8 8 8 8 7 7 8 9 9 8 7 8 8 9 9 9 9 9 10 10 9 8 7 6 6 6 6 6 7
4 1 2 4 4 3 4 4 2 3 4 5 6 6 6 6 5 6 7 8 8 8 10 10 9 9 9 9 9 9 9 9 9 9 9 8 8 7 7 7 7 7 6 6
2 2 2 3 5 4 4 3 2 2 3 5 6 7 5 4 6 7 8 9 9 9 8 9 10 9 9 9 9 9 8 8 9 9 8 8 8 8 7 8 7 7 6 6
4 2 2 1 3 3 7 4 2 3 2 1 3 3 5 6 7 6 6 7 6 7 7 7 7 7 7 7 7 7 7 8 9 8 8 8 8 7 7 6 7 7 5 6
6 6 3 3 3 5 7 5 0 2 2 3 3 3 3 3 4 2 2 5 4 5 6 7 7 7 7 8 9 8 7 7 7 7 8 8 8 7 7 7 7 6 5 5
2 5 5 3 3 5 6 7 2 5 2 4 3 4 3 5 3 3 2 4 4 4 4 5 6 6 7 7 8 9 8 8 8 8 8 7 8 8 7 7 6 5 5 5
4 3 2 4 4 5 6 7 4 2 4 3 2 4 4 3 5 4 3 5 5 5 4 5 7 7 7 7 8 8 8 9 9 7 7 6 7 7 7 5 4 5 5 4
2 1 2 2 3 5 6 4 2 4 3 0 1 2 3 2 2 3 5 5 6 5 4 4 6 6 6 7 8 8 7 7 6 7 7 6 6 6 6 5 5 5 5 5
2 4 4 4 5 4 2 1 2 2 1 1 1 0 3 3 3 4 4 4 4 5 4 4 5 6 5 6 8 8 5 5 6 7 7 6 6 5 5 6 6 5 5 5
4 2 2 1 2 3 4 4 3 3 2 1 0 2 3 3 3 4 4 3 3 4 4 4 5 6 5 5 6 6 6 6 7 7 6 6 6 5 4 4 5 5 5 5
4 2 1 2 4 4 5 5 5 5 4 3 3 2 3 4 4 4 3 3 3 3 3 4 5 6 6 5 4 4 5 6 6 6 6 6 6 6 5 4 4 5 5 7
3 3 3 5 6 3 5 5 5 5 4 3 2 2 1 3 4 3 3 3 4 4 3 3 3 5 5 5 5 4 5 6 7 5 5 5 5 4 4 4 2 0 2 4
Wind_Direction
286 86 246 238 221 227 237 236 267 267 260 148 187 185 183 182 182 185 181 180 179 179 174 165 162 161 161 160 158 160 158 163 151 148 147 143 150 146 145 162 155 149 147 144
335 269 247 243 245 246 258 262 279 295 284 198 181 197 192 187 191 191 187 185 182 175 169 168 165 166 169 168 167 164 164 165 161 161 162 157 152 158 160 156 152 154 149 150
225 246 253 259 258 252 268 231 237 250 322 17 94 304 207 207 200 196 193 189 183 178 176 176 173 174 171 173 173 171 170 168 165 158 142 127 104 91 93 125 159 164 149 145
241 249 256 257 259 236 257 244 236 240 288 288 122 223 252 224 217 205 199 193 189 184 178 177 177 177 177 179 174 169 170 169 167 159 152 152 157 166 186 176 166 160 152 148
248 249 253 252 253 238 233 231 221 235 187 339 319 168 272 225 222 221 206 195 191 187 183 181 180 182 180 175 172 171 170 171 169 167 165 163 165 173 165 154 149 159 155 153
250 255 230 232 251 239 231 345 7 31 65 320 257 182 270 231 217 217 209 196 190 188 186 184 181 178 173 171 172 171 172 177 174 173 172 170 168 166 157 159 162 169 166 160
280 278 264 242 262 284 167 101 8 337 352 256 250 189 245 238 219 207 201 193 182 181 183 180 177 179 173 170 175 179 177 181 180 178 181 179 173 171 174 174 174 169 169 176
234 271 259 242 216 222 223 158 174 211 228 261 287 228 249 244 231 200 176 181 172 177 183 185 184 180 176 174 176 178 179 182 184 184 186 184 176 176 180 180 176 181 189 193
201 244 263 253 231 183 209 208 185 160 193 247 266 276 299 309 118 129 146 159 165 175 180 185 186 180 176 178 180 179 178 179 183 185 181 182 180 176 179 179 174 180 183 182
178 236 274 270 287 253 190 179 107 130 167 239 272 259 246 242 199 168 170 167 169 166 171 173 177 182 183 183 181 177 175 180 183 185 186 184 178 174 172 168 174 180 183 176
171 192 276 310 226 235 214 175 141 139 156 169 229 260 231 203 193 180 184 182 177 169 175 178 179 178 178 176 176 177 178 178 183 186 184 179 175 172 168 173 181 181 176 169
183 153 241 261 258 223 182 184 155 162 218 170 181 259 272 194 193 172 175 175 169 171 174 177 175 169 166 167 170 174 177 179 182 183 183 179 178 175 177 182 184 181 178 176
126 118 85 328 331 352 54 150 162 156 144 160 174 258 289 163 168 172 170 166 162 167 166 165 167 168 169 169 170 172 173 176 177 179 178 176 178 182 185 187 181 182 179 175
84 105 160 203 235 258 292 294 175 138 164 195 205 224 266 226 186 184 175 175 167 164 163 164 171 172 173 170 169 170 172 173 174 174 175 181 186 188 187 183 181 182 178 176
67 103 205 239 251 249 260 263 237 185 184 188 208 204 220 214 198 188 179 175 159 157 160 168 170 172 174 172 170 171 171 168 171 172 178 186 186 178 176 179 183 182 182 185
38 98 23 333 322 320 313 289 237 211 187 191 184 215 228 206 175 171 175 173 168 167 167 171 173 172 175 175 173 171 171 169 165 169 180 182 177 176 181 186 186 184 187 183
21 88 58 292 310 357 310 267 218 226 214 173 192 220 203 170 165 177 179 179 185 185 176 174 174 173 177 180 171 170 173 165 166 174 177 177 177 178 184 187 182 186 189 186
169 127 144 207 21 247 245 259 127 106 45 121 153 192 172 180 181 176 168 162 181 186 183 179 174 171 169 163 155 156 157 162 170 174 177 179 178 181 183 182 188 192 188 186
178 161 157 153 202 267 295 311 115 117 350 27 99 93 101 115 91 57 150 146 163 171 172 177 175 169 159 156 156 153 157 163 167 173 180 182 180 181 183 188 194 192 188 194
70 132 148 163 182 229 256 296 301 98 354 340 85 105 100 93 103 248 205 132 128 130 146 156 153 143 146 163 156 154 163 168 180 186 186 183 180 182 189 195 196 190 184 190
7 25 157 191 211 251 274 309 20 92 243 293 91 130 131 150 193 210 158 124 130 127 129 135 139 145 158 158 152 158 169 184 190 182 179 181 182 185 187 187 183 176 176 173
189 172 225 171 194 248 309 15 95 218 243 18 93 131 136 148 139 119 129 131 126 122 123 129 138 155 159 152 149 158 185 196 180 173 176 180 182 184 177 169 174 171 168 173
182 190 190 189 213 249 304 151 216 163 96 81 105 131 143 119 118 125 136 135 136 136 132 131 149 158 161 162 159 167 191 181 172 175 182 180 178 179 172 170 175 174 175 183
315 16 85 353 285 316 345 357 351 23 30 342 105 119 114 121 137 126 132 140 142 143 142 141 152 157 165 173 172 183 183 172 167 174 179 178 176 179 178 177 178 180 187 189
263 343 14 298 289 339 351 348 341 351 10 25 24 84 135 137 144 143 143 156 161 155 154 149 158 167 173 174 175 186 176 163 165 172 176 178 177 175 173 175 187 195 204 199
239 206 198 239 248 240 277 295 330 349 339 335 355 11 82 147 154 152 160 172 159 153 144 142 157 170 177 178 182 186 183 170 165 170 176 176 173 172 169 167 163 327 204 211
Height
1499 1505 1510 1506 1502 1503 1504 1508 1510 1502 1494 1498 1503 1504 1504 1505 1507 1509 1511 1514 1516 1518 1521 1524 1526 1529 1532 1533 1535 1536 1538 1539 1541 1542 1543 1544 1544 1545 1546 1547 1547 1548 1548 1548
1504 1507 1498 1494 1494 1497 1500 1507 1508 1501 1493 1498 1504 1504 1501 1501 1502 1503 1506 1509 1513 1516 1519 1522 1524 1526 1529 1531 1533 1534 1536 1538 1539 1540 1542 1543 1544 1545 1546 1546 1547 1547 1547 1548
1506 1498 1491 1492 1495 1499 1501 1504 1505 1505 1498 1497 1504 1511 1506 1501 1502 1503 1505 1507 1510 1511 1514 1517 1520 1522 1525 1528 1530 1532 1534 1536 1538 1539 1541 1542 1543 1544 1545 1545 1546 1547 1547 1547
1497 1490 1489 1491 1493 1495 1504 1492 1493 1498 1508 1517 1510 1529 1513 1504 1503 1501 1502 1504 1506 1509 1511 1514 1517 1519 1521 1524 1528 1530 1533 1535 1536 1538 1539 1540 1541 1542 1544 1545 1545 1546 1546 1547
1495 1488 1489 1492 1488 1487 1492 1485 1489 1495 1505 1517 1514 1524 1518 1506 1505 1498 1496 1498 1501 1505 1507 1510 1513 1516 1518 1522 1525 1528 1531 1533 1535 1536 1538 1539 1540 1542 1543 1544 1545 1545 1546 1546
1486 1481 1483 1483 1480 1481 1483 1488 1494 1502 1513 1530 1519 1523 1522 1507 1499 1494 1492 1494 1497 1501 1505 1508 1511 1514 1517 1520 1523 1526 1529 1531 1533 1535 1537 1538 1539 1540 1542 1543 1543 1544 1545 1545
1492 1483 1478 1478 1483 1482 1485 1505 1527 1531 1538 1532 1515 1518 1515 1493 1488 1488 1489 1490 1493 1497 1501 1504 1508 1511 1513 1516 1520 1523 1525 1528 1531 1533 1534 1536 1538 1539 1540 1541 1542 1543 1543 1543
1504 1500 1480 1475 1479 1486 1487 1500 1526 1539 1540 1530 1517 1518 1502 1485 1483 1484 1486 1488 1491 1494 1497 1500 1503 1506 1510 1513 1517 1520 1522 1525 1528 1530 1532 1534 1536 1537 1538 1539 1540 1541 1542 1542
1500 1497 1475 1470 1469 1475 1486 1493 1495 1515 1521 1530 1524 1510 1494 1483 1482 1483 1486 1488 1488 1491 1494 1497 1501 1504 1507 1510 1513 1516 1519 1522 1525 1527 1530 1532 1533 1535 1536 1538 1539 1539 1540 1540
1483 1493 1479 1470 1468 1469 1474 1481 1499 1514 1529 1535 1525 1515 1507 1491 1487 1484 1485 1486 1488 1490 1493 1496 1499 1502 1505 1508 1510 1514 1516 1519 1522 1525 1527 1529 1531 1533 1534 1535 1536 1537 1538 1538
1475 1490 1485 1477 1477 1479 1477 1483 1492 1507 1512 1529 1534 1520 1486 1484 1482 1482 1483 1484 1485 1488 1492 1494 1497 1500 1503 1506 1509 1511 1514 1517 1520 1522 1524 1526 1528 1530 1532 1533 1534 1534 1535 1536
1472 1486 1494 1483 1469 1465 1469 1477 1489 1507 1512 1515 1523 1513 1478 1478 1477 1479 1481 1482 1484 1486 1489 1492 1495 1498 1500 1503 1506 1508 1511 1514 1517 1520 1522 1523 1525 1527 1529 1530 1531 1532 1533 1533
1471 1486 1502 1497 1486 1474 1474 1475 1480 1490 1502 1512 1519 1507 1477 1477 1477 1478 1480 1481 1483 1485 1488 1490 1493 1496 1497 1500 1502 1505 1508 1511 1514 1517 1519 1521 1523 1524 1526 1527 1528 1530 1530 1531
1466 1483 1495 1502 1495 1483 1481 1476 1476 1487 1502 1506 1503 1496 1482 1478 1478 1478 1479 1480 1481 1483 1485 1488 1491 1493 1495 1498 1500 1502 1505 1508 1511 1514 1516 1517 1519 1520 1522 1524 1525 1527 1528 1528
1469 1483 1481 1481 1476 1474 1474 1474 1473 1479 1485 1493 1489 1487 1480 1475 1474 1475 1477 1478 1479 1481 1483 1486 1489 1491 1493 1496 1497 1499 1502 1505 1508 1510 1512 1514 1516 1518 1520 1521 1522 1524 1525 1525
1473 1481 1482 1482 1474 1473 1474 1470 1468 1471 1473 1477 1478 1479 1471 1470 1471 1473 1474 1475 1476 1478 1479 1482 1485 1487 1490 1492 1494 1497 1499 1501 1505 1507 1509 1511 1513 1515 1517 1518 1519 1521 1521 1522
1478 1483 1490 1492 1480 1477 1483 1471 1468 1468 1467 1470 1477 1473 1468 1469 1470 1470 1471 1473 1474 1476 1477 1479 1481 1483 1485 1488 1491 1493 1496 1499 1502 1504 1506 1508 1510 1512 1513 1515 1516 1517 1518 1519
1477 1484 1493 1495 1490 1497 1480 1461 1459 1463 1466 1463 1464 1465 1464 1464 1465 1467 1468 1470 1472 1474 1476 1478 1479 1481 1483 1486 1489 1492 1494 1497 1499 1501 1503 1505 1507 1508 1510 1511 1512 1514 1515 1515
1467 1479 1491 1498 1498 1490 1473 1462 1461 1465 1470 1464 1464 1464 1464 1464 1465 1467 1468 1469 1470 1472 1474 1476 1478 1479 1481 1484 1487 1490 1492 1494 1496 1498 1500 1502 1503 1505 1506 1507 1509 1510 1511 1512
1466 1472 1486 1493 1495 1496 1479 1461 1456 1461 1475 1466 1464 1465 1465 1465 1472 1471 1468 1468 1470 1471 1473 1475 1477 1478 1480 1483 1485 1488 1490 1492 1493 1495 1497 1499 1500 1502 1503 1504 1506 1507 1508 1509
1478 1480 1485 1489 1492 1485 1469 1460 1458 1478 1480 1468 1465 1465 1465 1465 1467 1467 1466 1467 1469 1470 1472 1474 1475 1477 1479 1481 1484 1485 1487 1488 1490 1492 1494 1496 1497 1499 1500 1502 1503 1504 1505 1506
1482 1485 1486 1488 1492 1488 1466 1463 1469 1472 1467 1466 1465 1464 1464 1464 1464 1465 1465 1466 1467 1469 1471 1472 1474 1475 1478 1479 1481 1482 1484 1486 1488 1489 1491 1492 1494 1496 1497 1499 1499 1500 1502 1503
1477 1478 1479 1481 1482 1471 1467 1466 1466 1466 1465 1464 1463 1463 1463 1463 1463 1464 1465 1466 1467 1468 1469 1471 1472 1474 1475 1477 1478 1479 1481 1483 1485 1486 1488 1489 1491 1493 1494 1496 1497 1498 1498 1499
1474 1470 1473 1475 1471 1468 1466 1466 1465 1463 1462 1462 1462 1461 1461 1462 1462 1463 1464 1465 1466 1467 1468 1469 1471 1472 1473 1474 1476 1477 1479 1481 1482 1483 1485 1487 1488 1490 1492 1493 1494 1494 1495 1496
1474 1472 1474 1475 1471 1467 1465 1465 1464 1462 1460 1460 1460 1460 1460 1460 1461 1462 1462 1463 1464 1465 1467 1468 1469 1469 1470 1472 1473 1475 1477 1478 1480 1481 1482 1484 1486 1487 1489 1490 1491 1492 1493 1493
1470 1472 1475 1474 1469 1468 1466 1464 1463 1461 1460 1459 1458 1458 1458 1458 1459 1460 1461 1462 1463 1463 1465 1466 1466 1467 1468 1469 1470 1472 1474 1476 1476 1477 1479 1481 1482 1484 1485 1487 1488 1490 1491 1491